When you browse on this site, cookies collect data to enhance your experience and personalize the content and advertising you see.
Visit our Privacy Policy to learn more. By continuing to use the site, you agree to this use of cookies and data.
  • In Romania
  • List of Countries
  • For 7 days
  • Water Temperature
  • Weather Map
  • Weather Widgets
  • user-avatar
    Login

    Hourly Weather Starogard Gdański

    Today, 12 November, Tuesday

    Time Temperature Precipitation Wind Pressure Humidity
    00:00 0°C° 0 mm 4 mps 752 mmHg 85%
    01:00 -1°C° 0 mm 4 mps 752 mmHg 84%
    02:00 0°C° 0 mm 4 mps 751 mmHg 83%
    03:00 +1°C° 0 mm 4 mps 751 mmHg 83%
    04:00 +1°C° 0 mm 4 mps 750 mmHg 82%
    05:00 +1°C° 0 mm 4 mps 750 mmHg 83%
    06:00 +3°C° 0 mm 4 mps 750 mmHg 84%
    07:00 +2°C° 0 mm 5 mps 749 mmHg 81%
    08:00 +2°C° 0 mm 5 mps 750 mmHg 79%
    09:00 +3°C° 0 mm 5 mps 750 mmHg 78%
    10:00 +5°C° 0 mm 5 mps 750 mmHg 76%
    11:00 +5°C° 0.1 mm 4 mps 750 mmHg 78%
    12:00 +5°C° 0.1 mm 4 mps 750 mmHg 79%
    13:00 +6°C° 0.1 mm 4 mps 750 mmHg 81%
    14:00 +7°C° 0.1 mm 3 mps 749 mmHg 83%
    15:00 +6°C° 0.1 mm 2 mps 749 mmHg 86%
    16:00 +7°C° 0.1 mm 1 mps 749 mmHg 88%
    17:00 +7°C° 0.1 mm 1 mps 749 mmHg 89%
    18:00 +7°C° 0.1 mm 1 mps 749 mmHg 90%
    19:00 +7°C° 0.1 mm 1 mps 749 mmHg 91%
    20:00 +7°C° 0.4 mm 1 mps 749 mmHg 92%
    21:00 +7°C° 0.4 mm 1 mps 748 mmHg 94%
    22:00 +7°C° 0.4 mm 1 mps 748 mmHg 95%
    23:00 +7°C° 0.3 mm 1 mps 748 mmHg 95%

    Tomorrow, 13 November, Wednesday

    Time Temperature Precipitation Wind Pressure Humidity
    00:00 +7°C° 0.3 mm 1 mps 748 mmHg 96%
    01:00 +7°C° 0.3 mm 1 mps 748 mmHg 96%
    02:00 +7°C° 0.2 mm 1 mps 747 mmHg 97%
    03:00 +7°C° 0.2 mm 1 mps 747 mmHg 97%
    04:00 +6°C° 0.2 mm 2 mps 746 mmHg 98%
    05:00 +7°C° 0 mm 2 mps 746 mmHg 98%
    06:00 +7°C° 0 mm 2 mps 746 mmHg 97%
    07:00 +7°C° 0 mm 2 mps 746 mmHg 97%
    08:00 +7°C° 0.1 mm 2 mps 745 mmHg 96%
    09:00 +8°C° 0.1 mm 2 mps 745 mmHg 95%
    10:00 +8°C° 0.1 mm 2 mps 745 mmHg 94%
    11:00 +8°C° 1 mm 2 mps 744 mmHg 95%
    12:00 +8°C° 1 mm 2 mps 744 mmHg 95%
    13:00 +8°C° 1 mm 2 mps 743 mmHg 96%
    14:00 +8°C° 1.6 mm 2 mps 743 mmHg 97%
    15:00 +9°C° 1.6 mm 1 mps 743 mmHg 98%
    16:00 +9°C° 1.6 mm 1 mps 743 mmHg 98%
    17:00 +9°C° 0.2 mm 1 mps 743 mmHg 98%
    18:00 +9°C° 0.2 mm 1 mps 744 mmHg 98%
    19:00 +9°C° 0.2 mm 1 mps 744 mmHg 97%
    20:00 +9°C° 0 mm 1 mps 744 mmHg 97%
    21:00 +9°C° 0 mm 1 mps 744 mmHg 97%
    22:00 +9°C° 0 mm 1 mps 744 mmHg 97%
    23:00 +9°C° 1.2 mm 1 mps 744 mmHg 97%

    Day after tomorrow, 14 November, Thursday

    Time Temperature Precipitation Wind Pressure Humidity
    00:00 +8°C° 1.2 mm 2 mps 744 mmHg 98%
    01:00 +8°C° 1.2 mm 2 mps 743 mmHg 98%
    02:00 +8°C° 2 mm 3 mps 743 mmHg 97%
    03:00 +8°C° 2 mm 3 mps 743 mmHg 96%
    04:00 +8°C° 2 mm 3 mps 743 mmHg 95%
    05:00 +7°C° 0.6 mm 4 mps 743 mmHg 93%
    06:00 +7°C° 0.6 mm 5 mps 744 mmHg 91%
    07:00 +5°C° 0.6 mm 6 mps 745 mmHg 88%
    08:00 +6°C° 0 mm 5 mps 746 mmHg 87%
    09:00 +6°C° 0 mm 4 mps 747 mmHg 85%
    10:00 +7°C° 0 mm 3 mps 748 mmHg 84%
    11:00 +7°C° 0 mm 3 mps 749 mmHg 81%
    12:00 +7°C° 0 mm 2 mps 750 mmHg 79%
    13:00 +8°C° 0 mm 2 mps 751 mmHg 77%
    14:00 +8°C° 0 mm 1 mps 751 mmHg 78%
    15:00 +8°C° 0 mm 1 mps 752 mmHg 79%
    16:00 +8°C° 0 mm 1 mps 752 mmHg 80%
    17:00 +8°C° 0 mm 1 mps 752 mmHg 81%
    18:00 +8°C° 0 mm 1 mps 752 mmHg 81%
    19:00 +8°C° 0 mm 1 mps 753 mmHg 81%
    20:00 +7°C° 0 mm 1 mps 753 mmHg 84%
    21:00 +5°C° 0 mm 2 mps 753 mmHg 86%
    22:00 +5°C° 0 mm 2 mps 753 mmHg 88%
    23:00 +5°C° 0 mm 2 mps 753 mmHg 89%

    15 November, Friday

    Time Temperature Precipitation Wind Pressure Humidity
    00:00 +4°C° 0 mm 3 mps 753 mmHg 91%
    01:00 +4°C° 0 mm 3 mps 753 mmHg 92%
    02:00 +4°C° 0 mm 3 mps 752 mmHg 93%
    03:00 +4°C° 0 mm 4 mps 752 mmHg 94%
    04:00 +4°C° 0 mm 4 mps 752 mmHg 95%
    05:00 +5°C° 0 mm 4 mps 752 mmHg 96%
    06:00 +7°C° 0 mm 3 mps 752 mmHg 96%
    07:00 +7°C° 0 mm 3 mps 752 mmHg 97%
    08:00 +8°C° 0 mm 3 mps 752 mmHg 96%
    09:00 +8°C° 0 mm 4 mps 752 mmHg 95%
    10:00 +10°C° 0 mm 4 mps 752 mmHg 94%
    11:00 +11°C° 0 mm 4 mps 752 mmHg 90%
    12:00 +12°C° 0 mm 4 mps 752 mmHg 86%
    13:00 +12°C° 0 mm 4 mps 752 mmHg 83%
    14:00 +12°C° 0 mm 4 mps 751 mmHg 85%
    15:00 +11°C° 0 mm 4 mps 751 mmHg 87%
    16:00 +11°C° 0 mm 4 mps 751 mmHg 89%
    17:00 +10°C° 0 mm 4 mps 751 mmHg 89%
    18:00 +10°C° 0 mm 4 mps 751 mmHg 89%
    19:00 +10°C° 0 mm 4 mps 751 mmHg 90%
    20:00 +10°C° 0 mm 4 mps 751 mmHg 90%
    21:00 +10°C° 0 mm 4 mps 751 mmHg 91%
    22:00 +9°C° 0 mm 5 mps 751 mmHg 91%
    23:00 +10°C° 0 mm 4 mps 751 mmHg 92%

    16 November, Saturday

    Time Temperature Precipitation Wind Pressure Humidity
    00:00 +8°C° 0 mm 4 mps 751 mmHg 92%
    01:00 +8°C° 0 mm 4 mps 751 mmHg 93%
    02:00 +8°C° 0 mm 4 mps 751 mmHg 93%
    03:00 +8°C° 0 mm 4 mps 751 mmHg 93%
    04:00 +8°C° 0 mm 4 mps 751 mmHg 93%
    05:00 +8°C° 0 mm 4 mps 751 mmHg 93%
    06:00 +7°C° 0 mm 5 mps 751 mmHg 92%
    07:00 +7°C° 0 mm 5 mps 750 mmHg 92%
    08:00 +8°C° 0 mm 5 mps 751 mmHg 87%
    09:00 +9°C° 0 mm 5 mps 751 mmHg 83%
    10:00 +10°C° 0 mm 6 mps 751 mmHg 78%
    11:00 +11°C° 0 mm 6 mps 752 mmHg 76%
    12:00 +13°C° 0 mm 5 mps 752 mmHg 74%
    13:00 +13°C° 0 mm 5 mps 752 mmHg 71%
    14:00 +13°C° 0 mm 4 mps 753 mmHg 74%
    15:00 +12°C° 0 mm 4 mps 753 mmHg 77%
    16:00 +11°C° 0 mm 3 mps 754 mmHg 79%
    17:00 +10°C° 0 mm 3 mps 754 mmHg 81%
    18:00 +9°C° 0 mm 2 mps 755 mmHg 82%
    19:00 +8°C° 0 mm 2 mps 756 mmHg 84%
    20:00 +8°C° 0 mm 1 mps 756 mmHg 85%
    21:00 +8°C° 0 mm 1 mps 756 mmHg 86%
    22:00 +7°C° 0 mm 0 mps 757 mmHg 86%
    23:00 +8°C° 0 mm 1 mps 757 mmHg 87%

    17 November, Sunday

    Time Temperature Precipitation Wind Pressure Humidity
    00:00 +7°C° 0 mm 1 mps 757 mmHg 87%
    01:00 +6°C° 0 mm 2 mps 757 mmHg 88%
    02:00 +6°C° 0 mm 2 mps 757 mmHg 89%
    03:00 +7°C° 0 mm 2 mps 756 mmHg 90%
    04:00 +7°C° 0 mm 3 mps 756 mmHg 92%
    05:00 +7°C° 0 mm 3 mps 756 mmHg 93%
    06:00 +7°C° 0 mm 3 mps 756 mmHg 93%
    07:00 +8°C° 0 mm 3 mps 755 mmHg 94%
    08:00 +8°C° 0 mm 3 mps 755 mmHg 92%
    09:00 +9°C° 0 mm 3 mps 755 mmHg 90%
    10:00 +8°C° 0 mm 4 mps 755 mmHg 88%
    11:00 +10°C° 0 mm 4 mps 754 mmHg 84%
    12:00 +11°C° 0 mm 4 mps 754 mmHg 81%
    13:00 +11°C° 0 mm 4 mps 753 mmHg 77%
    14:00 +10°C° 0 mm 4 mps 753 mmHg 80%
    15:00 +8°C° 0 mm 4 mps 753 mmHg 83%
    16:00 +8°C° 0 mm 3 mps 753 mmHg 86%
    17:00 +8°C° 0 mm 3 mps 753 mmHg 86%
    18:00 +8°C° 0 mm 3 mps 753 mmHg 86%
    19:00 +6°C° 0 mm 4 mps 753 mmHg 86%
    20:00 +7°C° 0 mm 3 mps 753 mmHg 87%
    21:00 +7°C° 0 mm 3 mps 752 mmHg 88%
    22:00 +7°C° 0 mm 3 mps 752 mmHg 89%
    23:00 +5°C° 0 mm 3 mps 752 mmHg 89%
    Show more